Flag for Laos Weather past 2 weeks in Vientiane, Laos

Now
79 °F

Fog.


Feels Like: 82 °F
Forecast: 80 / 112 °F
Wind: 2 mph from North

Location: Vientiane Airport


UV Index: 10 (Very high)

Visibility: 2 mi


Pressure: 29.74 "Hg

Humidity: 89%

Dew point: 75 °F

Location of VientianeLocation

Historic Weather in Vientiane

°F

Vientiane temperature yesterday

Maximum temperature yesterday: 97 °F (at 3:00 PM)
Minimum temperature yesterday: 81 °F (at 6:00 AM)
Average temperature yesterday: 88 °F

Past Weeks' High & Low Weather Summary

 TemperatureHumidityPressure
High97 °F (Apr 3, 4:00 PM)100% (Apr 16, 7:00 AM)29.98 "Hg (Apr 16, 7:00 AM)
Low70 °F (Apr 7, 7:00 AM)47% (Apr 3, 4:00 PM)29.65 "Hg (Apr 3, 5:00 PM)
Average84 °F70%29.81 "Hg
* Reported Apr 3 6:00 AM — Apr 18 6:30 AM, Vientiane, Weather by CustomWeather, © 2014

Note: Actual official high and low records may vary slightly from our data, if they occured in-between our weather recording intervals... More about our weather records

Advertising

Historic Weather Conditions — Data for Previous 24 hours

 ConditionsComfort  
Time TempWeatherWind HumidityBarometerVisibility
6:30 AM
Apr 18
79 °FFog.2 mph89%29.74 "Hg2 mi
6:00 AM79 °FFog.2 mph89%29.74 "Hg2 mi
12:00 AM82 °FFog.2 mph89%29.77 "Hg1 mi
11:30 PM
Apr 17
82 °FFog.2 mph84%29.77 "Hg1 mi
11:00 PM84 °FFog.2 mph84%29.77 "Hg1 mi
10:00 PM86 °FFog.2 mph79%29.77 "Hg1 mi
9:30 PM86 °FFog.2 mph79%29.74 "Hg2 mi
8:30 PM88 °FFog.2 mph70%29.71 "Hg2 mi
8:00 PM90 °FFog.2 mph67%29.71 "Hg2 mi
7:30 PM90 °FFog.2 mph63%29.71 "Hg2 mi
7:00 PM91 °FFog.2 mph59%29.71 "Hg2 mi
5:30 PM91 °FFog.2 mph59%29.65 "Hg3 mi
5:00 PM93 °FScattered clouds.2 mph56%29.65 "Hg3 mi
4:30 PM93 °FScattered clouds.2 mph53%29.65 "Hg4 mi
4:00 PM95 °FScattered clouds.2 mph50%29.65 "Hg3 mi
3:30 PM97 °FScattered clouds.5 mph50%29.68 "Hg3 mi
3:00 PM97 °FScattered clouds.5 mph50%29.71 "Hg3 mi
2:30 PM95 °FScattered clouds.5 mph53%29.68 "Hg3 mi
2:00 PM95 °FScattered clouds.5 mph53%29.71 "Hg3 mi
1:30 PM93 °FScattered clouds.2 mph56%29.71 "Hg3 mi
1:00 PM93 °FScattered clouds.2 mph56%29.74 "Hg3 mi
12:00 PM90 °FScattered clouds.2 mph63%29.77 "Hg4 mi
11:30 AM90 °FScattered clouds.2 mph63%29.80 "Hg4 mi
11:00 AM88 °FScattered clouds.2 mph66%29.80 "Hg3 mi
10:30 AM88 °FFog.2 mph66%29.83 "Hg3 mi
10:00 AM86 °FFog.2 mph70%29.83 "Hg3 mi
9:30 AM86 °FFog.2 mph70%29.80 "Hg3 mi
9:00 AM84 °FFog.2 mph74%29.80 "Hg3 mi
8:30 AM82 °FFog.2 mph79%29.77 "Hg2 mi
8:00 AM82 °FFog.2 mph79%29.77 "Hg2 mi
7:30 AM81 °FFog.2 mph84%29.74 "Hg2 mi
7:00 AM81 °FFog.2 mph84%29.74 "Hg2 mi
Weather by CustomWeather, © 2014

See weather overview